Palmdale, CA

12:33 PM PDT on June 25, 2017 (GMT -0700)
Palmdale Af Plant 42

Weather History for KPMD - December, 2012

Change the Weather History Date:

Saturday, December 8, 2012

  Actual Average Record
Temperature  
Mean Temperature 49 °F 45 °F  
Max Temperature 68 °F 59 °F 74 °F (1950)
Min Temperature 30 °F 31 °F 10 °F (1978)
Degree Days  
Heating Degree Days 16 20  
Month to date heating degree days 81 156  
Since 1 July heating degree days 457 683  
Cooling Degree Days 0 0  
Month to date cooling degree days 0 0  
Year to date cooling degree days 2317 1815  
Moisture  
Dew Point 22 °F    
Average Humidity 44    
Maximum Humidity 78    
Minimum Humidity 10    
Precipitation  
Precipitation 0.00 in 0.02 in 0.60 in (1934)
Month to date precipitation T 0.11  
Year to date precipitation 1.90 7.26  
Since 1 July precipitation 0.11  
Snow  
Snow 0.00 in - 1.00 in (1972)
Month to date snowfall 0.0  
Since 1 July snowfall 0.0  
Snow Depth 0.00 in    
Sea Level Pressure  
Sea Level Pressure 29.99 in    
Wind  
Wind Speed 4 mph (WSW)    
Max Wind Speed 15 mph    
Max Gust Speed 17 mph    
Visibility 10 miles    
Events      
T = Trace of Precipitation, MM = Missing Value Source: NWS Daily Summary

Daily Weather History Graph

Daily Weather History Graph

Search for Another Location

Airport or City:

Trip Planner

Search our weather history database for the weather conditions in past years. The results will help you decide how hot, cold, wet, or windy it might be!

Date:

Astronomy

Dec. 08, 2012 Rise Set
Actual Time 6:47 AM PST 4:41 PM PST
Civil Twilight 6:19 AM PST 5:09 PM PST
Nautical Twilight 5:48 AM PST 5:40 PM PST
Astronomical Twilight 5:17 AM PST 6:11 PM PST
Moon 1:27 AM PST (12/8) 1:05 PM PST (12/8)
Length of Visible Light 10h 49m
Length of Day
9h 54m
Waning Crescent, 27% of the Moon is Illuminated
Dec 8
Waning Crescent
Dec 13
New
Dec 19
First Quarter
Dec 28
Full
Jan 4
Last Quarter

Hourly Weather History & Observations

Time (PST) Temp. Windchill Dew Point Humidity Pressure Visibility Wind Dir Wind Speed Gust Speed Precip Events Conditions
12:53 AM 37.9 °F 34.4 °F 30.0 °F 73% 30.00 in 10.0 mi South 4.6 mph - N/A   Clear
1:53 AM 37.9 °F 32.7 °F 28.9 °F 70% 29.99 in 10.0 mi South 6.9 mph - N/A   Clear
2:53 AM 37.0 °F 32.4 °F 28.9 °F 73% 29.99 in 10.0 mi South 5.8 mph - N/A   Clear
3:53 AM 37.0 °F 33.3 °F 28.9 °F 73% 29.98 in 10.0 mi SSW 4.6 mph - N/A   Clear
4:53 AM 34.0 °F - 26.1 °F 73% 29.99 in 10.0 mi Calm Calm - N/A   Clear
5:53 AM 33.1 °F 28.7 °F 27.0 °F 78% 30.01 in 10.0 mi NW 4.6 mph - N/A   Clear
6:53 AM 32.0 °F 27.5 °F 27.0 °F 82% 30.04 in 10.0 mi WNW 4.6 mph - N/A   Clear
7:53 AM 37.9 °F 34.4 °F 27.0 °F 65% 30.04 in 10.0 mi SW 4.6 mph - N/A   Clear
8:53 AM 46.0 °F - 30.0 °F 54% 30.04 in 10.0 mi Calm Calm - N/A   Clear
9:53 AM 51.1 °F - 30.9 °F 46% 30.04 in 10.0 mi Calm Calm - N/A   Clear
10:53 AM 55.9 °F - 30.0 °F 37% 30.02 in 10.0 mi Calm Calm - N/A   Clear
11:53 AM 62.1 °F - 28.9 °F 29% 29.98 in 10.0 mi Calm Calm - N/A   Clear
12:53 PM 64.9 °F - 19.9 °F 18% 29.95 in 10.0 mi Calm Calm - N/A   Clear
1:53 PM 66.9 °F - 18.0 °F 15% 29.93 in 10.0 mi North 4.6 mph - N/A   Clear
2:53 PM 66.2 °F - 17.6 °F 15% 29.94 in 10.0 mi Calm Calm - N/A   Clear
3:53 PM 66.9 °F - 16.0 °F 14% 29.92 in 10.0 mi WNW 3.5 mph - N/A   Clear
4:53 PM 62.1 °F - 7.0 °F 11% 29.93 in 10.0 mi WNW 13.8 mph - N/A   Clear
5:53 PM 57.9 °F - 1.0 °F 10% 29.96 in 10.0 mi WNW 9.2 mph - N/A   Clear
6:53 PM 54.0 °F - 5.0 °F 14% 29.98 in 10.0 mi Calm Calm - N/A   Clear
7:53 PM 51.1 °F - 17.1 °F 26% 29.98 in 10.0 mi WNW 6.9 mph - N/A   Clear
8:53 PM 44.1 °F 42.5 °F 17.1 °F 34% 29.99 in 10.0 mi South 3.5 mph - N/A   Clear
9:53 PM 45.0 °F - 23.0 °F 42% 30.00 in 10.0 mi Calm Calm - N/A   Clear
10:53 PM 43.0 °F 38.8 °F 19.9 °F 40% 30.00 in 10.0 mi South 6.9 mph - N/A   Clear
11:53 PM 39.9 °F 35.1 °F 21.0 °F 47% 30.00 in 10.0 mi SSW 6.9 mph - N/A   Clear